User: anonymous   Login
Location: Camp Creek
(33.9000°N, 111.8167°W)
Time: 04:01:17
(UTC-07:00)
Language:

Cosmos 1656 - Orbit

View from above orbital plane
View from above orbital plane
View from above satellite
View from above satellite

Ground track
Ground track

The orbit data is extracted from the following two-line orbital elements,

1 15755U 85042A   17290.44912513 +.00000105 +00000-0 +70865-4 0  9996
2 15755 071.1097 105.6429 0036941 224.0592 135.7589 14.20415335677785
Epoch (UTC): 17 October 2017 10:46:44
Eccentricity: 0.0036941
inclination: 71.1097°
perigee height: 797 km
apogee height: 850 km
right ascension of ascending node: 105.6429°
argument of perigee: 224.0592°
revolutions per day: 14.20415335
mean anomaly at epoch: 135.7589°
orbit number at epoch: 67778

The dashed part of the orbit path shows where the satellite is in the earth's shadow,  

DLR